Regional Weather Roundup
Issued by NWS

Home | Current Version | Previous Version | Text Only | Print | Product List | Glossary On
Versions: 1 2 3 4 5 6 7 8 9 10 11 12 13 14 15 16 17 18 19 20 21 22 23 24 25 26 27 28 29 30 31 32 33 34 35 36 37 38 39 40 41 42 43 44 45 46 47 48 49 50
000
ASUS43 KFSD 261402
RWRSD

WEATHER ROUNDUP FOR SOUTH DAKOTA
NATIONAL WEATHER SERVICE SIOUX FALLS SD
900 AM CDT SAT JUL 26 2014

NOTE: "FAIR" INDICATES FEW OR NO CLOUDS BELOW 12,000 FEET WITH NO
SIGNIFICANT WEATHER AND/OR OBSTRUCTIONS TO VISIBILITY.


SDZ001>005-009-010-012>017-261500-
NORTHWEST AND NORTH CENTRAL SOUTH DAKOTA

CITY           SKY/WX    TMP DP  RH WIND       PRES   REMARKS
BUFFALO          N/A     64  47  53 NW16      29.98R
FAITH            N/A     66  47  50 NW15      29.99R
MOBRIDGE       SUNNY     69  53  56 NW13      29.89R
$$

SDZ012>016-024>037-041>051-057-063-072>074-261500-
SOUTHWEST AND SOUTH CENTRAL SOUTH DAKOTA

CITY           SKY/WX    TMP DP  RH WIND       PRES   REMARKS
RAPID CTY ARPT SUNNY     66  46  48 N16       30.06R
PIERRE         PTSUNNY   71  69  93 NW14      29.89R
CUSTER         SUNNY     67  33  28 N9        30.15R
ELLSWORTH AFB  SUNNY     67  45  45 N15       30.06R
PHILIP         CLOUDY    72  59  63 N18G24    29.93R
PINE RIDGE     SUNNY     66  55  67 NW7       30.02R
WINNER         CLOUDY    75  70  84 S8        29.83R
$$

SDZ004>011-016>023-039-040-261500-
NORTHEAST SOUTH DAKOTA

CITY           SKY/WX    TMP DP  RH WIND       PRES   REMARKS
ABERDEEN       MOSUNNY   69  66  90 W7        29.87R
WATERTOWN      PTSUNNY   68  65  90 S3        29.87S
SISSETON         N/A     71  68  90 S5        29.81S
$$

SDZ017-020-022-023-036>040-048>070-261500-
SOUTHEAST SOUTH DAKOTA

CITY           SKY/WX    TMP DP  RH WIND       PRES   REMARKS
SIOUX FALLS    CLOUDY    73  70  90 E5        29.86R
HURON          LGT RAIN  68  67  96 S5        29.82F FOG
CHAMBERLAIN    CLOUDY    70  65  86 N18G39    29.90R
MITCHELL       PTSUNNY   72  70  93 N14G24    29.87R THUNDER
YANKTON        MOSUNNY   73  72  94 SE9       29.83F
$$

ABBREVIATIONS USED IN REMARKS
   TC - TEMPERATURE IN CELSIUS
  WCI - WIND CHILL INDEX
   HX - HEAT INDEX
  VSB - VISIBILITY




USA.gov is the U.S. government's official web portal to all federal, state and local government web resources and services.